Miscellaneous Local Product
Issued by NWS Hastings, NE

Home | Current Version | Previous Version | Graphics & Text | Print | Product List | Glossary On
Versions: 1 2 3 4 5 6 7 8 9 10 11 12 13 14 15 16 17 18 19 20 21 22 23 24 25 26 27 28 29 30 31 32 33 34 35 36 37 38 39 40 41 42 43 44 45 46 47 48 49 50
000
AXUS43 KGID 302202
MISGRI

GID CWA HOURLY WEATHER ROUNDUP
NATIONAL WEATHER SERVICE HASTINGS NE
500 PM CDT TUE JUN 30 2015

NOTE: "FAIR" INDICATES FEW OR NO CLOUDS BELOW 12,000 FEET WITH NO
SIGNIFICANT WEATHER AND/OR OBSTRUCTIONS TO VISIBILITY.

...SOUTH CENTRAL NEBRASKA...

CITY           SKY/WX    TMP DP  RH WIND       PRES   REMARKS
GRAND ISLAND   CLOUDY    88  68  51 E14       29.86F HX  91
HASTINGS       PTSUNNY   94  63  35 S6        29.86F HX  95
KEARNEY        PTSUNNY   93  57  29 SW8       29.86S HX  92
ORD            CLOUDY    85  69  58 E12       29.85F
YORK           CLOUDY    88  68  51 SE10      29.87F HX  91
AURORA         CLOUDY    88  65  47 SE10      29.86F HX  90
LEXINGTON      CLOUDY    94  59  31 SW3       29.86F HX  93
HOLDREGE       PTSUNNY   94  53  25 S8        29.87F HX  92
HEBRON         CLOUDY    94  54  25 SW3       29.85F HX  91

...NEBRASKA PANHANDLE...

CITY           SKY/WX    TMP DP  RH WIND       PRES   REMARKS
CHADRON        MOSUNNY   92  62  36 NW6       29.87F HX  92
ALLIANCE       SUNNY     94  51  23 MISG      29.92F HX  91
SCOTTSBLUFF    MOSUNNY   91  54  28 W7        29.93F
SIDNEY         MOSUNNY   93  55  27 S7        29.98F HX  91

...WESTERN AND NORTH CENTRAL NEBRASKA...

CITY           SKY/WX    TMP DP  RH WIND       PRES   REMARKS
VALENTINE      CLOUDY    84  66  54 E14       29.86F
AINSWORTH      CLOUDY    80  67  63 E13       29.89F
ONEILL         CLOUDY    78  64  62 SE13      29.90S
BROKEN BOW     CLOUDY    90  66  45 S6        29.87F HX  92
IMPERIAL       SUNNY     95  52  23 SW7       29.90F HX  92
NORTH PLATTE   CLOUDY    95  61  32 SW6       29.86F HX  95
MCCOOK         MOSUNNY  100  49  17 SW8       29.87F HX  97

...EASTERN NEBRASKA...

CITY           SKY/WX    TMP DP  RH WIND       PRES   REMARKS
NORFOLK        CLOUDY    75  65  70 E7        29.90F
SO SIOUX CITY  LGT RAIN  74  67  78 E6        29.90F
TEKAMAH        CLOUDY    74  67  78 CALM      29.89F
COLUMBUS       PTSUNNY  N/A N/A N/A MISG        N/A
ALBION         CLOUDY    81  62  51 E10       29.90S
OMAHA EPPLEY   CLOUDY    76  67  73 E5        29.89F
OFFUTT AFB     CLOUDY    77  68  73 E7        29.88F
MILLARD        CLOUDY    78  65  65 E3        29.89F
LINCOLN        CLOUDY    83  64  52 E9        29.88F HAZE
NEBRASKA CITY  CLOUDY    78  63  58 E6        29.90S
BEATRICE       PTSUNNY   87  71  58 E14G20    29.87F HX  92
FALLS CITY     CLOUDY    80  67  64 E8        29.88F

...NORTHERN KANSAS...

CITY           SKY/WX    TMP DP  RH WIND       PRES   REMARKS
GOODLAND       SUNNY     95  48  20 S9        29.96F HX  91
HILL CITY      MOSUNNY  102  46  15 W13       29.85F HX  98
NORTON         CLEAR     99  36  11 S8        29.85F HX  93
PHILLIPSBURG   SUNNY    104  43  12 SW6       29.83F HX  99
SMITH CENTER   SUNNY     99  45  15 SW8       29.83F HX  94
HAYS           SUNNY    100  48  17 SW18G24   29.86F HX  97
RUSSELL        MOSUNNY  102  50  17 W13G22    29.83F HX  99
CONCORDIA      PTSUNNY   96  61  31 SW10      29.84F HX  96
SALINA         CLOUDY   102  54  20 SW9       29.84F HX 100
TOPEKA         SUNNY     89  68  49 E10       29.87F HX  93



USA.gov is the U.S. government's official web portal to all federal, state and local government web resources and services.